Flag for U.S.A. Weather past 2 weeks in Anchorage, Alaska, U.S.A.

Now
60 °F

Sunny.


Feels Like: 60 °F
Forecast: 46 / 56 °F
Wind: 3 mph from North

Location: Lake Hood Seaplane

Current Time: Aug 30, 2014 at 5:17:06 PM

Latest Report: Aug 30, 2014 at 3:53 PM


Visibility: 10 mi

Pressure: 29.57 "Hg

Humidity: 49%

Dew point: 41 °F

Location of AnchorageLocation

Historic Weather in Anchorage — Graph

°F

Anchorage temperature yesterday

Maximum temperature yesterday: 62 °F (at 4:53 PM)
Minimum temperature yesterday: 52 °F (at 7:59 AM)
Average temperature yesterday: 55 °F

Past Weeks' High & Low Weather Summary

 TemperatureHumidityPressure
High70 °F (Aug 19, 4:53 PM)100% (Aug 21, 5:02 AM)30.25 "Hg (Aug 21, 5:02 AM)
Low44 °F (Aug 30, 6:53 AM)48% (Aug 30, 1:53 AM)29.56 "Hg (Aug 29, 4:53 PM)
Average57 °F76%29.86 "Hg
* Reported Aug 15 3:53 PM — Aug 30 3:53 PM, Anchorage, Weather by CustomWeather, © 2014

Note: Actual official high and low records may vary slightly from our data, if they occured in-between our weather recording intervals... More about our weather records

Advertising

Anchorage weather history for previous 24 hours

 ConditionsComfort  
Time TempWeatherWind HumidityBarometerVisibility
3:53 PM
Aug 30
60 °FSunny.3 mph49%29.57 "Hg10 mi
2:53 PM59 °FSunny.3 mph51%29.58 "Hg10 mi
1:53 PM57 °FSunny.3 mph53%29.59 "Hg10 mi
12:53 PM55 °FSunny.3 mph57%29.61 "Hg10 mi
11:53 AM52 °FSunny.No wind59%29.62 "Hg10 mi
10:53 AM50 °FSunny.3 mph61%29.62 "Hg10 mi
9:53 AM48 °FSunny.6 mph63%29.62 "Hg10 mi
8:53 AM46 °FSunny.7 mph66%29.63 "Hg10 mi
7:53 AM45 °FSunny.8 mph68%29.62 "Hg10 mi
6:53 AM44 °FClear.No wind71%29.62 "Hg10 mi
5:53 AM46 °FClear.8 mph63%29.63 "Hg10 mi
4:53 AM47 °FClear.7 mph59%29.63 "Hg10 mi
3:53 AM47 °FPassing clouds.9 mph59%29.63 "Hg10 mi
2:53 AM48 °FClear.5 mph59%29.62 "Hg10 mi
1:53 AM51 °FPassing clouds.8 mph48%29.62 "Hg10 mi
12:53 AM52 °FPassing clouds.9 mph50%29.60 "Hg10 mi
11:53 PM
Aug 29
55 °FMostly cloudy.12 mph62%29.59 "Hg10 mi
10:53 PM53 °FPassing clouds.No wind80%29.58 "Hg10 mi
9:53 PM54 °FOvercast.No wind80%29.57 "Hg10 mi
8:53 PM55 °FScattered clouds.3 mph80%29.57 "Hg10 mi
7:53 PM59 °FSunny.7 mph64%29.57 "Hg10 mi
6:53 PM59 °FSunny.9 mph67%29.56 "Hg10 mi
5:53 PM59 °FSunny.9 mph69%29.56 "Hg10 mi
Weather by CustomWeather, © 2014

See weather overviewHow to use our weather pages